Observations for Trim Market St
| Time | AQI | Temp °C | Hum % | Pres Pa | CO μg/m³ | H₂S μg/m³ | NO μg/m³ | NO₂ μg/m³ | O₃ μg/m³ | SO₂ μg/m³ | PM1 μg/m³ | PM2.5 μg/m³ | PM10 μg/m³ |
|---|---|---|---|---|---|---|---|---|---|---|---|---|---|
| Tuesday 14 July 2026 | |||||||||||||
| 13:44 | 1 | 36.2 | 26 | 66,558 | 0 | 0 | 0 | 0 | 18.57 | 0 | 1.43 | 4.58 | 5.04 |
| 13:43 | 1 | 36.1 | 26 | 66,558 | 0 | 0 | 0 | 0 | 29.41 | 0.08 | 1.43 | 5.67 | 7.52 |
| 13:42 | 1 | 36 | 26 | 66,527 | 0 | 0 | 0 | 0 | 24.24 | 0 | 2.14 | 5.67 | 5.75 |
| 13:39 | 1 | 35.8 | 26 | 66,499 | 0 | 0 | 0 | 0.81 | 30.32 | 0 | 1.43 | 5.66 | 6.22 |
| 13:38 | 1 | 35.8 | 27 | 66,509 | 0 | 0 | 0 | 0 | 17.61 | 0 | 3.56 | 10.58 | 17.26 |
| 13:37 | 1 | 35.7 | 27 | 66,525 | 0 | 0 | 0 | 2.67 | 41.28 | 0.03 | 4.28 | 7.82 | 12.82 |
| 13:36 | 1 | 35.6 | 27 | 66,521 | 0 | 0 | 0 | 4.02 | 37.62 | 0 | 2.14 | 5.64 | 5.76 |
| 13:35 | 1 | 35.6 | 27 | 66,515 | 0 | 0 | 0 | 7.43 | 41.56 | 0 | 0.71 | 4.55 | 5 |
| 13:32 | 1 | 35.5 | 26 | 66,487 | 0 | 0 | 0 | 2.65 | 26.86 | 0 | 2.85 | 7.33 | 11.08 |
| 13:31 | 1 | 35.5 | 26 | 66,480 | 0 | 0 | 0 | 0 | 28.96 | 0 | 1.43 | 5.13 | 5.65 |
| 13:30 | 1 | 35.5 | 26 | 66,469 | 0 | 0 | 0 | 0 | 26.65 | 0 | 1.43 | 4.57 | 5.03 |
| 13:29 | 1 | 35.5 | 27 | 66,451 | 0 | 0 | 0 | 0 | 33.52 | 0 | 2.85 | 6.74 | 7.42 |
| 13:28 | 1 | 35.4 | 27 | 66,461 | 0 | 0 | 0 | 4.4 | 36.44 | 0 | 2.14 | 6.19 | 8.41 |
| 13:25 | 1 | 35.2 | 26 | 66,441 | 0 | 0 | 0 | 2.29 | 45.03 | 0 | 4.28 | 10.05 | 15.5 |
| 13:21 | 1 | 34.9 | 26 | 66,455 | 0 | 0 | 0 | 0 | 45.55 | 0 | 11.4 | 22.1 | 49.16 |
| 13:18 | 1 | 34.8 | 26 | 66,439 | 0 | 0 | 0 | 1.03 | 48.85 | 0 | 1.43 | 4.58 | 5.04 |
| 13:17 | 1 | 34.8 | 26 | 66,455 | 0 | 0 | 0 | 0 | 49.12 | 0 | 2.14 | 5.14 | 6.63 |
| 13:09 | 1 | 34.6 | 25 | 66,425 | 0 | 0 | 0 | 0 | 50.17 | 0 | 1.43 | 5.71 | 6.63 |
| 13:08 | 1 | 34.6 | 25 | 66,410 | 0 | 0 | 0 | 0 | 46.19 | 0 | 1.43 | 5.17 | 5.74 |
| 13:07 | 1 | 34.5 | 25 | 66,418 | 0 | 0 | 0 | 0 | 33.22 | 0 | 2.14 | 5.73 | 6.63 |